GEOSCAN 1 (RS92S1)

Last updated on Sun Jun 21 2026 00:03:20 GMT+0000 (Coordinated Universal Time)

1 64880U 25155E 26171.38708490 .00009677 00000+0 32727-3 0 9992 2 64880 97.4556 140.1018 0008742 152.1627 208.0084 15.30802172 81262
UTC large
Height (km)
Speed (km/s)
/
Latitude / Longitude
Inclination (degrees)
Orbital Period (minutes)
Azimuth
Elevation
Range (km)
Doppler Factor

Next 0 passes for location: London (51.5072 / 0.1276)

No passes found over London.
GEOSCAN 1 (RS92S1)